STARLINK-11565, 62912

Orbit data source: Space-Track

STARLINK-11565, 62912 is a payload satellite owned by SpaceX/Seattle (US) in LEO that was launched on Sat, 08 Feb 2025 UTC via an FALCON 9 launch vehicle from the Air Force Eastern Test Range (AFETR). Payload-class satellites include a variety of spacecraft equipped with specific instruments for various scientific and technological missions. These include communications satellites like Starlink; space stations such as the ISS; scientific satellites like the Hubble; Earth observation satellites from companies like Planet Labs, Umbra, and HawkEye 360; GPS; miniature CubeSats for education and research; and military/defense satellites.

Loading next visibility...
Identifier
62912, 2025-027F
Orbit
LEO
Country
Flag of USUS
Related business
Manufacturer
SpaceX/Seattle
Mission
Operational Commercial Communications
Bus & Motor
STARLINK V2MD, Unknown motor
Mass
960 kg wet, ~910 kg dry
Launch date (UTC)
2025-02-08 (2 years ago)
Launch vehicle
FALCON 9
Launch site
Air Force Eastern Test Range (AFETR)
Object type
Payload
Rocket body
Debris
Shape & HBR
Box + 2 Pan, 18.1 m
Radar Cross Section
36.964 m², Large (>1 m²)

Expand to show TLE details & history
Last TLE update: 12 hours ago

TLE from 12 hours ago
0 STARLINK-11565
1 62912U 25027F   26264.12476221  .00120437  00000-0  92804-3 0  9994
2 62912  42.9967 249.2272 0001268 178.0789 182.0083 15.70852993 93894
Epoch: 2026-09-21T02:59Z
TLE epoch observation values (Epoch: 2026-09-21T02:59:39.454Z)
Latitude
-0.00008°
Longitude
-155.69637°
Altitude
357.082 km
Speed
7.696 km/s
True Right ascension
16h 36m 54s
True Declination
0° 00' 00"
Sunlit
Object was in daylight at epoch
Visualization orbit readout
Latitude
Unknown
Longitude
Unknown
Altitude
Unknown
Speed
Unknown
Apparent Right ascension
Unknown
Apparent Declination
Unknown
Sunlit
N/A
Visualization observer readout
Local Sidereal Time
08:06:15
Azimuth
Unknown
Elevation
Unknown
Doppler factor
Unknown
Orbital elements
Apogee altitude
359.294 km
Perigee altitude
357.586 km
Semi-major axis
6,736.577 km
Eccentricity
0.00013
Inclination
42.9967°
RAAN
249.2272°
Arg. of periapsis
178.0789°
True anomaly
182.00779°
Mean anomaly
182.0083°
Eccentric anomaly
182.00805°
Mean motion
3.9254 °/min
Orbital period
91.71 mins
BSTAR
0.00092804
Loading maneuver chart data...
Computing Atmospheric mass density...
Loading historical data...
Loading historical data...
Loading historical data...
Loading historical data...
Loading historical data...
Loading historical data...
Loading historical data...

Documentation

Showing up to 5 results
|